Location: Berua Church
(35.0423°N, 88.5987°W)
Time: 10:58:13
(UTC+00:00)

Feng Yun 1-1 Rocket - Pass Details

Date: 08 December 2019
Orbit: 830 x 933 km, 99.2° (Epoch: 24 January)

Event Time Altitude Azimuth Distance (km) Brightness Sun altitude
Rises 23:29:37 0° 167° (SSE) 3,384 7.5 -9.6°
Reaches altitude 10° 23:31:58 10° 168° (SSE) 2,443 6.7 -10.1°
Maximum altitude 23:37:23 82° 256° (WSW) 844 4.3 -11.1°
Drops below altitude 10° 23:42:47 10° 344° (NNW) 2,442 6.6 -12.1°
Sets 23:45:08 0° 346° (NNW) 3,381 7.3 -12.6°
